This is the latest recevied weather packets stored in our database for station/object K3JSE-2. If no packets are shown the sender has not sent any weather packets the latest 10 day(s).
| Time | Temp. | Humidity | Pressure | Rain* | Wind** | Luminosity | Snow |
|---|---|---|---|---|---|---|---|
| 1778001727 | 26.11° C | 43% | 1009.9 hPa | 0 mm | - | - | - |
| 1778001456 | 26.11° C | 45% | 1010.1 hPa | 0 mm | - | - | - |
| 1778001285 | 26.11° C | 45% | 1010.1 hPa | 0 mm | - | - | - |
| 1778001158 | 26.11° C | 44% | 1010.1 hPa | 0 mm | - | - | - |
| 1778000873 | 26.11° C | 46% | 1010.2 hPa | 0 mm | - | - | - |
| 1778000608 | 26.11° C | 46% | 1010.2 hPa | 0 mm | - | - | - |
| 1778000545 | 26.11° C | 46% | 1010.2 hPa | 0 mm | - | - | - |
| 1778000318 | 26.11° C | 43% | 1010.2 hPa | 0 mm | - | - | - |
| 1778000073 | 26.11° C | 45% | 1010.3 hPa | 0 mm | - | - | - |
| 1777999778 | 26.11° C | 46% | 1010.3 hPa | 0 mm | - | - | - |
| 1777999528 | 26.11° C | 42% | 1010.4 hPa | 0 mm | - | - | - |
| 1777999278 | 26.11° C | 48% | 1010.4 hPa | 0 mm | - | - | - |
| 1777999130 | 26.67° C | 44% | 1010.3 hPa | 0 mm | - | - | - |
| 1777999013 | 26.67° C | 45% | 1010.4 hPa | 0 mm | - | - | - |
| 1777998748 | 26.11° C | 41% | 1010.3 hPa | 0 mm | - | - | - |
| 1777998488 | 26.11° C | 41% | 1010.3 hPa | 0 mm | - | - | - |
| 1777998390 | 26.11° C | 42% | 1010.3 hPa | 0 mm | - | - | - |
| 1777998243 | 26.11° C | 39% | 1010.4 hPa | 0 mm | - | - | - |
| 1777997958 | 26.11° C | 40% | 1010.3 hPa | 0 mm | - | - | - |
| 1777997688 | 25.56° C | 41% | 1010.3 hPa | 0 mm | - | - | - |
| 1777997610 | 26.11° C | 41% | 1010.4 hPa | 0 mm | - | - | - |
| 1777997433 | 26.11° C | 41% | 1010.4 hPa | 0 mm | - | - | - |
| 1777997138 | 25.56° C | 42% | 1010.4 hPa | 0 mm | - | - | - |
| 1777996845 | 25° C | 44% | 1010.4 hPa | 0 mm | - | - | - |
| 1777996838 | 25° C | 44% | 1010.4 hPa | 0 mm | - | - | - |
* Rain latest hour (hover to see other rain measurements)
** Current wind speed in m/s (hover to see current wind gust speed)